TimeMST,TemperatureF,Dew PointF,Humidity,Sea Level PressureIn,VisibilityMPH,Wind Direction,Wind SpeedMPH,Gust SpeedMPH,PrecipitationIn,Events,Conditions,WindDirDegrees,DateUTC
12:53 AM,17.1,12.9,84,30.14,3.0,NNE,3.5,-,0.00,Snow,Light Snow,20,2012-12-30 07:53:00
1:16 AM,17.6,14.0,86,30.01,2.5,North,3.5,-,0.00,Snow,Light Snow,360,2012-12-30 08:16:00
1:34 AM,17.6,14.0,86,30.00,1.5,Calm,Calm,-,0.00,Snow,Light Snow,0,2012-12-30 08:34:00
1:45 AM,17.6,14.0,86,30.01,3.0,ENE,3.5,-,0.00,Snow,Light Snow,60,2012-12-30 08:45:00
1:53 AM,18.0,14.0,84,30.14,2.5,East,3.5,-,0.00,Snow,Light Snow,90,2012-12-30 08:53:00
2:03 AM,17.6,14.0,86,30.00,2.5,Calm,Calm,-,0.00,Snow,Light Snow,0,2012-12-30 09:03:00
2:12 AM,17.6,12.2,79,30.01,2.5,Calm,Calm,-,0.00,Snow,Light Snow,0,2012-12-30 09:12:00
2:23 AM,15.8,12.2,86,30.01,5.0,ENE,4.6,-,0.00,Snow,Light Snow,70,2012-12-30 09:23:00
2:40 AM,12.2,10.4,92,30.02,8.0,ENE,5.8,-,0.00,,Scattered Clouds,60,2012-12-30 09:40:00
2:53 AM,12.0,10.0,92,30.17,8.0,ENE,5.8,-,0.00,,Scattered Clouds,70,2012-12-30 09:53:00
3:53 AM,12.9,10.9,92,30.16,5.0,NE,3.5,-,N/A,,Overcast,50,2012-12-30 10:53:00
4:04 AM,12.2,10.4,92,30.02,4.0,Calm,Calm,-,N/A,,Mostly Cloudy,0,2012-12-30 11:04:00
4:11 AM,12.2,10.4,92,30.02,4.0,ENE,3.5,-,N/A,,Overcast,60,2012-12-30 11:11:00
4:53 AM,12.0,9.0,88,30.19,6.0,Calm,Calm,-,N/A,,Overcast,0,2012-12-30 11:53:00
5:53 AM,12.0,8.1,84,30.22,7.0,NW,4.6,-,0.00,Snow,Light Snow,320,2012-12-30 12:53:00
6:53 AM,15.1,12.0,88,30.22,10.0,NE,3.5,-,0.00,,Overcast,40,2012-12-30 13:53:00
7:53 AM,16.0,12.9,88,30.22,6.0,NNE,3.5,-,N/A,,Mostly Cloudy,20,2012-12-30 14:53:00
8:51 AM,15.8,12.2,86,30.06,4.0,Calm,Calm,-,0.00,Snow,Light Snow,0,2012-12-30 15:51:00
8:53 AM,16.0,12.9,88,30.23,4.0,Calm,Calm,-,0.00,Snow,Light Snow,0,2012-12-30 15:53:00
9:53 AM,18.0,14.0,84,30.24,3.0,Calm,Calm,-,0.00,Snow,Light Snow,0,2012-12-30 16:53:00
10:53 AM,19.0,14.0,81,30.24,6.0,East,3.5,-,0.00,Snow,Light Snow,90,2012-12-30 17:53:00
11:53 AM,19.9,14.0,78,30.23,10.0,NNE,6.9,-,0.00,,Mostly Cloudy,20,2012-12-30 18:53:00
12:53 PM,21.0,15.1,78,30.21,10.0,Calm,Calm,-,0.00,,Scattered Clouds,0,2012-12-30 19:53:00
1:53 PM,21.0,15.1,78,30.20,10.0,West,4.6,-,N/A,,Scattered Clouds,260,2012-12-30 20:53:00
2:53 PM,19.0,12.9,77,30.23,10.0,West,5.8,-,N/A,,Partly Cloudy,270,2012-12-30 21:53:00
3:53 PM,16.0,12.0,84,30.25,10.0,SW,6.9,-,N/A,,Partly Cloudy,230,2012-12-30 22:53:00
4:53 PM,10.9,8.1,88,30.27,10.0,South,8.1,-,N/A,,Mostly Cloudy,190,2012-12-30 23:53:00
5:53 PM,12.9,9.0,84,30.28,10.0,SW,6.9,-,N/A,,Scattered Clouds,220,2012-12-31 00:53:00
6:53 PM,12.9,10.9,92,30.29,8.0,SW,9.2,-,N/A,,Mostly Cloudy,230,2012-12-31 01:53:00
7:19 PM,12.2,10.4,92,30.12,5.0,WSW,8.1,-,N/A,,Overcast,240,2012-12-31 02:19:00
7:21 PM,12.2,10.4,92,30.12,1.0,WSW,6.9,-,N/A,,Overcast,240,2012-12-31 02:21:00
7:53 PM,15.1,12.9,91,30.29,1.0,West,10.4,-,N/A,,Overcast,270,2012-12-31 02:53:00
8:49 PM,15.8,14.0,93,30.12,3.0,SSW,4.6,-,0.00,Snow,Light Snow,200,2012-12-31 03:49:00
8:53 PM,16.0,14.0,92,30.28,3.0,SSW,3.5,-,0.00,Snow,Light Snow,210,2012-12-31 03:53:00
9:53 PM,14.0,10.9,88,30.30,7.0,West,9.2,-,0.00,,Overcast,280,2012-12-31 04:53:00
10:00 PM,12.2,10.4,92,30.13,6.0,West,9.2,-,N/A,,Overcast,280,2012-12-31 05:00:00
10:18 PM,12.2,10.4,92,30.13,4.0,West,5.8,-,N/A,,Overcast,280,2012-12-31 05:18:00
10:28 PM,12.2,12.2,100,30.13,1.8,West,4.6,-,N/A,,Overcast,270,2012-12-31 05:28:00
10:53 PM,14.0,12.0,92,30.29,3.0,SSW,4.6,-,N/A,,Overcast,200,2012-12-31 05:53:00
11:53 PM,16.0,14.0,92,30.30,3.0,WSW,8.1,-,N/A,,Overcast,240,2012-12-31 06:53:00